This is the latest recevied weather packets stored in our database for station/object N3SBK. If no packets are shown the sender has not sent any weather packets the latest 10 day(s).
| Time | Temp. | Humidity | Pressure | Rain* | Wind** | Luminosity | Snow |
|---|---|---|---|---|---|---|---|
| 1788100520 | 22.78° C | 82% | 1013.7 hPa | 0 mm | - | 80 W/m² | - |
| 1788100217 | 22.78° C | 81% | 1013.7 hPa | 0 mm | - | 69 W/m² | - |
| 1788099913 | 22.78° C | 82% | 1013.6 hPa | 0 mm | - | 107 W/m² | - |
| 1788099608 | 22.78° C | 82% | 1013.6 hPa | 0 mm | - | 115 W/m² | - |
| 1788099303 | 22.78° C | 82% | 1013.8 hPa | 0 mm | - | 111 W/m² | - |
| 1788099003 | 22.22° C | 83% | 1013.7 hPa | 0 mm | - | 114 W/m² | - |
| 1788098699 | 22.22° C | 83% | 1013.5 hPa | 0 mm | - | 115 W/m² | - |
| 1788098398 | 21.67° C | 84% | 1013.6 hPa | 0 mm | - | 97 W/m² | - |
| 1788098093 | 21.67° C | 85% | 1013.5 hPa | 0 mm | - | 105 W/m² | - |
| 1788097789 | 21.67° C | 85% | 1013.6 hPa | 0 mm | - | 113 W/m² | - |
| 1788097484 | 21.67° C | 86% | 1013.6 hPa | 0 mm | - | 103 W/m² | - |
| 1788097180 | 21.11° C | 86% | 1013.4 hPa | 0 mm | - | 94 W/m² | - |
| 1788096876 | 21.11° C | 86% | 1013.5 hPa | 0 mm | - | 90 W/m² | - |
| 1788096570 | 21.11° C | 86% | 1013.3 hPa | 0 mm | - | 94 W/m² | - |
| 1788096267 | 20.56° C | 86% | 1013.3 hPa | 0 mm | - | 97 W/m² | - |
| 1788095966 | 20.56° C | 89% | 1013.5 hPa | 0 mm | - | 84 W/m² | - |
| 1788095665 | 20.56° C | 89% | 1013.5 hPa | 0 mm | - | 80 W/m² | - |
| 1788095360 | 20° C | 90% | 1013.6 hPa | 0 mm | - | 71 W/m² | - |
| 1788095056 | 20° C | 90% | 1013.7 hPa | 0 mm | - | 73 W/m² | - |
| 1788094754 | 19.44° C | 90% | 1013.6 hPa | 0 mm | - | 70 W/m² | - |
| 1788094450 | 19.44° C | 91% | 1013.7 hPa | 0 mm | - | 66 W/m² | - |
| 1788094148 | 19.44° C | 91% | 1013.3 hPa | 0 mm | - | 64 W/m² | - |
| 1788093843 | 19.44° C | 90% | 1013.5 hPa | 0 mm | - | 58 W/m² | - |
| 1788093539 | 18.89° C | 91% | 1013.6 hPa | 0 mm | - | 49 W/m² | - |
| 1788093236 | 18.89° C | 91% | 1013.5 hPa | 0 mm | - | 50 W/m² | - |
* Rain latest hour (hover to see other rain measurements)
** Current wind speed in m/s (hover to see current wind gust speed)